Location: Casco Volunteer Fire Department
(44.5576°N, 87.6146°W)
Time: 05:18:58
(UTC+00:00)

Cosmos 1484 Rocket - Pass Details

Date: 22 January 2026
Orbit: 439 x 468 km, 97.6° (Epoch: 7 February)

Event Time Altitude Azimuth Distance (km) Brightness Sun altitude
Rises 12:11:44 0° 6° (N) 2,468 6.1 -12.0°
Reaches altitude 10° 12:13:49 10° 360° (N) 1,596 5.0 -11.6°
Maximum altitude 12:17:05 44° 287° (WNW) 646 2.7 -11.0°
Drops below altitude 10° 12:20:21 10° 215° (SW) 1,600 5.0 -10.5°
Sets 12:22:27 0° 208° (SSW) 2,474 6.0 -10.1°
